Gaithersburg, MD

3:36 PM EST on December 05, 2019 (GMT -0500)
Montgomery County

Weather History for KGAI - November, 2019

Change the Weather History Date:

Tuesday, November 12, 2019

  Actual Average (KCGS) Record (KCGS)
Temperature  
Mean Temperature 42 °F -  
Max Temperature 57 °F 57 °F 75 °F (1985)
Min Temperature 26 °F 38 °F 17 °F (1957)
Degree Days  
Heating Degree Days 23    
Moisture  
Dew Point 30 °F    
Average Humidity 67    
Maximum Humidity 94    
Minimum Humidity 48    
Precipitation  
Precipitation 0.00 in - - ()
Sea Level Pressure  
Sea Level Pressure 30.02 in    
Wind  
Wind Speed 10 mph (WNW)    
Max Wind Speed 17 mph    
Max Gust Speed 25 mph    
Visibility 10 miles    
Events Rain    
Averages and records for this station are not official NWS values.
T = Trace of Precipitation, MM = Missing Value Source: NWS Daily Summary

Daily Weather History Graph

Daily Weather History Graph

Search for Another Location

Airport or City:

Astronomy

Nov. 12, 2019 Rise Set
Actual Time 6:48 AM EST 4:56 PM EST
Civil Twilight 6:19 AM EST 5:25 PM EST
Nautical Twilight 5:47 AM EST 5:57 PM EST
Astronomical Twilight 5:16 AM EST 6:28 PM EST
Moon 5:22 PM EST (11/12) 6:38 AM EST (11/12)
Length of Visible Light 11h 05m
Length of Day
10h 08m
Full, 100% of the Moon is Illuminated
Nov 12
Full
Nov 19
Last Quarter
Nov 26
New
Dec 4
First Quarter
Dec 12
Full

Hourly Weather History & Observations

Time (EST) Temp. Windchill Dew Point Humidity Pressure Visibility Wind Dir Wind Speed Gust Speed Precip Events Conditions
12:56 AM 57.9 °F - 41.0 °F 53% 29.81 in 10.0 mi SW 6.9 mph - N/A   Clear
1:56 AM 57.9 °F - 41.0 °F 53% 29.80 in 10.0 mi SW 9.2 mph - N/A   Partly Cloudy
2:56 AM 55.9 °F - 44.1 °F 64% 29.81 in 10.0 mi WSW 8.1 mph - N/A Rain Light Rain
3:56 AM 52.0 °F - 46.9 °F 83% 29.81 in 10.0 mi West 5.8 mph - N/A Rain Light Rain
4:56 AM 50.0 °F - 48.0 °F 93% 29.84 in 10.0 mi West 6.9 mph - N/A Rain Light Rain
5:29 AM 50.0 °F - 48.2 °F 94% 29.80 in 10.0 mi WNW 10.4 mph - N/A Rain Light Rain
5:56 AM 48.9 °F - 46.9 °F 93% 29.86 in 10.0 mi WNW 13.8 mph - N/A Rain Light Rain
6:14 AM 48.2 °F - 44.6 °F 87% 29.83 in 10.0 mi NW 13.8 mph 21.9 mph N/A Rain Light Rain
6:49 AM 44.6 °F 37.8 °F 42.8 °F 93% 29.86 in 10.0 mi WNW 15.0 mph 24.2 mph N/A Rain Light Rain
6:56 AM 45.0 °F 37.6 °F 39.9 °F 82% 29.91 in 10.0 mi NW 17.3 mph 24.2 mph N/A   Overcast
8:56 AM 41.0 °F 33.5 °F 30.0 °F 65% 29.99 in 10.0 mi WNW 13.8 mph 25.3 mph N/A   Overcast
9:56 AM 39.9 °F 32.9 °F 28.0 °F 63% 30.04 in 10.0 mi NW 11.5 mph 17.3 mph N/A   Overcast
10:56 AM 39.0 °F 31.0 °F 27.0 °F 62% 30.05 in 10.0 mi NW 13.8 mph 18.4 mph N/A   Overcast
11:56 AM 37.9 °F 31.5 °F 30.9 °F 76% 30.05 in 10.0 mi NW 9.2 mph - N/A   Overcast
12:56 PM 37.0 °F 30.4 °F 21.0 °F 52% 30.05 in 10.0 mi NNW 9.2 mph 19.6 mph N/A   Clear
1:56 PM 37.9 °F 30.5 °F 19.9 °F 48% 30.04 in 10.0 mi NW 11.5 mph 17.3 mph N/A   Scattered Clouds
3:56 PM 36.0 °F 28.5 °F 21.9 °F 57% 30.09 in 10.0 mi NW 10.4 mph 17.3 mph 0.00 in Rain Light Rain
4:56 PM 35.1 °F 27.9 °F 21.0 °F 57% 30.13 in 10.0 mi NW 9.2 mph 16.1 mph 0.00 in   Overcast
5:56 PM 33.1 °F 24.9 °F 19.0 °F 56% 30.18 in 10.0 mi NW 10.4 mph 21.9 mph N/A   Mostly Cloudy
6:56 PM 30.9 °F 21.7 °F 21.0 °F 67% 30.21 in 10.0 mi WNW 11.5 mph - 0.00 in   Overcast
7:56 PM 30.0 °F 21.7 °F 19.0 °F 64% 30.24 in 10.0 mi NNW 9.2 mph - N/A   Clear
8:56 PM 28.9 °F 21.9 °F 17.1 °F 61% 30.27 in 10.0 mi Variable 6.9 mph - N/A   Clear
9:56 PM 28.0 °F 20.0 °F 15.1 °F 58% 30.29 in 10.0 mi NW 8.1 mph - N/A   Clear
10:56 PM 27.0 °F 18.7 °F 12.0 °F 53% 30.31 in 10.0 mi NW 8.1 mph - N/A   Clear
11:56 PM 26.1 °F 19.4 °F 10.0 °F 51% 30.33 in 10.0 mi Variable 5.8 mph - N/A   Clear